User: anonymous   Login
Location: Newark
(35.6799°N, 139.7636°E)
Time: 11:28:36
(UTC+00:00)
Language:

Transit 4A - Orbit

View from above orbital plane
View from above orbital plane
View from above satellite
View from above satellite

Ground track
Ground track

The orbit data is extracted from the following two-line orbital elements,

1   116U 61015A   19343.68169519 -.00000059  00000-0  13724-4 0  9992
2   116  66.8101 314.5647 0071899 146.9529 213.6074 13.91761921965768
Epoch (UTC): 09 December 2019 16:21:38
Eccentricity: 0.0071899
inclination: 66.8101°
perigee height: 870 km
apogee height: 975 km
right ascension of ascending node: 314.5647°
argument of perigee: 146.9529°
revolutions per day: 13.91761921
mean anomaly at epoch: 213.6074°
orbit number at epoch: 96576

The dashed part of the orbit path shows where the satellite is in the earth's shadow,  

DLR